Location: Bad Dürkheim
(49.4618°N, 8.1724°E)
Time: 21:20:18
(UTC+00:00)

Spot 1 - Pass Details

Date: 14 June 2025
Orbit: 569 x 752 km, 98.7° (Epoch: 16 July)

Event Time Altitude Azimuth Distance (km) Brightness Sun altitude
Rises 23:18:52 0° 13° (NNE) 3,138 9.2 -17.2°
Reaches altitude 10° 23:21:07 10° 13° (NNE) 2,234 8.1 -17.2°
Maximum altitude 23:26:03 80° 288° (WNW) 762 4.5 -17.2°
Enters shadow 23:28:47 28° 204° (SSW) 1,389 5.3 -17.2°
